HST 1 20580U 90037B 25121.91122417 .00009564 00000-0 36641-3 0 9999 2 20580 28.4692 358.4728 0001966 305.9279 54.1133 15.24779315725872 ISS (ZARYA) 1 25544U 98067A 25122.16310700 .00011873 00000-0 22114-3 0 9993 2 25544 51.6358 175.0201 0002090 83.0482 309.0274 15.49285613508026 CXO 1 25867U 99040B 25124.47797547 .00000650 00000-0 00000-0 0 9995 2 25867 48.5990 131.7302 8493358 308.8609 359.7335 0.37807267 15771